This is the latest recevied weather packets stored in our database for station/object EA3CO-11. If no packets are shown the sender has not sent any weather packets the latest 10 day(s).
| Time | Temp. | Humidity | Pressure | Rain* | Wind** | Luminosity | Snow |
|---|---|---|---|---|---|---|---|
| 1777968160 | 18.89° C | 63% | 1014.1 hPa | - | - | - | - |
| 1777967260 | 18.89° C | 66% | 1014.3 hPa | - | - | - | - |
| 1777966360 | 17.22° C | 65% | 1014.3 hPa | - | - | - | - |
| 1777965460 | 16.67° C | 75% | 1014.2 hPa | - | - | - | - |
| 1777964559 | 16.67° C | 73% | 1014.3 hPa | - | - | - | - |
| 1777963659 | 15.56° C | 77% | 1014.3 hPa | - | - | - | - |
| 1777962759 | 14.44° C | 81% | 1014.2 hPa | - | - | - | - |
| 1777961859 | 13.89° C | 84% | 1014.2 hPa | - | - | - | - |
| 1777960959 | 13.89° C | 84% | 1014.3 hPa | - | - | - | - |
| 1777960059 | 13.89° C | 83% | 1014.2 hPa | - | - | - | - |
| 1777959159 | 13.33° C | 84% | 1014.1 hPa | - | - | - | - |
| 1777958259 | 12.78° C | 88% | 1014.1 hPa | - | - | - | - |
| 1777957359 | 12.22° C | 90% | 1014.1 hPa | - | - | - | - |
| 1777956459 | 12.22° C | 91% | 1014.1 hPa | - | - | - | - |
| 1777955558 | 12.22° C | 89% | 1014.1 hPa | - | - | - | - |
| 1777954658 | 12.22° C | 89% | 1014 hPa | - | - | - | - |
| 1777953758 | 12.22° C | 88% | 1014 hPa | - | - | - | - |
| 1777952858 | 12.22° C | 87% | 1013.9 hPa | - | - | - | - |
| 1777951958 | 12.22° C | 87% | 1014.1 hPa | - | - | - | - |
| 1777951058 | 12.22° C | 88% | 1014.2 hPa | - | - | - | - |
| 1777950158 | 11.67° C | 90% | 1014.2 hPa | - | - | - | - |
| 1777949257 | 12.22° C | 89% | 1014.2 hPa | - | - | - | - |
| 1777948357 | 12.22° C | 88% | 1014.2 hPa | - | - | - | - |
| 1777947457 | 12.22° C | 90% | 1014.2 hPa | - | - | - | - |
| 1777946557 | 12.22° C | 92% | 1014.1 hPa | - | - | - | - |
* Rain since midnight (hover to see other rain measurements)
** Current wind speed in m/s (hover to see current wind gust speed)